QPF
0.12 0.11 0.11 0.14 0.09 0.08 0.09 0.09 0.11 0.11 0.10 0.11 0.10 0.09 0.09 0.05 0.03 0.03 0.02 0.03 0.03 0.03 0.04 0.06 0.09 0.16 0.14 0.14 0.14 0.10 0.07 0.06 0.08 0.07 0.05 0.07 0.06 0.05 0.05 0.06 0.11 0.11 0.13
0.12 0.11 0.11 0.11 0.09 0.09 0.08 0.09 0.09 0.09 0.07 0.09 0.10 0.12 0.09 0.06 0.05 0.04 0.04 0.04 0.04 0.04 0.04 0.07 0.14 0.16 0.12 0.11 0.10 0.10 0.10 0.08 0.09 0.08 0.07 0.08 0.07 0.05 0.04 0.04 0.08 0.08 0.06
0.10 0.10 0.09 0.09 0.07 0.07 0.07 0.08 0.07 0.07 0.07 0.06 0.09 0.10 0.08 0.08 0.08 0.07 0.05 0.04 0.05 0.06 0.06 0.11 0.17 0.13 0.10 0.08 0.08 0.08 0.08 0.08 0.09 0.10 0.13 0.12 0.08 0.04 0.03 0.03 0.04 0.06 0.05
0.07 0.08 0.06 0.06 0.05 0.05 0.06 0.07 0.07 0.08 0.07 0.06 0.06 0.08 0.08 0.07 0.06 0.06 0.04 0.04 0.04 0.06 0.07 0.11 0.11 0.09 0.09 0.08 0.07 0.06 0.07 0.08 0.07 0.08 0.10 0.09 0.07 0.05 0.04 0.03 0.04 0.05 0.04
0.07 0.06 0.05 0.04 0.04 0.05 0.06 0.06 0.09 0.09 0.06 0.07 0.06 0.07 0.08 0.08 0.07 0.06 0.05 0.06 0.04 0.04 0.07 0.07 0.06 0.06 0.07 0.06 0.05 0.05 0.06 0.05 0.04 0.04 0.05 0.06 0.07 0.05 0.04 0.04 0.03 0.04 0.04
0.06 0.05 0.04 0.05 0.05 0.05 0.06 0.07 0.13 0.09 0.07 0.07 0.06 0.06 0.07 0.07 0.07 0.06 0.06 0.06 0.05 0.04 0.06 0.08 0.05 0.05 0.05 0.05 0.05 0.04 0.04 0.03 0.04 0.06 0.04 0.05 0.06 0.06 0.05 0.05 0.03 0.03 0.04
0.05 0.06 0.04 0.04 0.05 0.05 0.06 0.09 0.13 0.08 0.07 0.07 0.06 0.07 0.06 0.05 0.06 0.07 0.05 0.05 0.06 0.07 0.08 0.08 0.07 0.06 0.05 0.06 0.06 0.05 0.03 0.03 0.05 0.06 0.05 0.05 0.04 0.03 0.04 0.04 0.03 0.03 0.03
0.04 0.06 0.05 0.05 0.05 0.04 0.04 0.07 0.11 0.08 0.06 0.06 0.06 0.07 0.05 0.03 0.03 0.05 0.08 0.09 0.08 0.07 0.06 0.07 0.07 0.08 0.10 0.11 0.07 0.04 0.03 0.03 0.03 0.04 0.04 0.05 0.02 0.02 0.04 0.04 0.03 0.03 0.05
0.04 0.05 0.06 0.06 0.03 0.03 0.03 0.06 0.08 0.07 0.06 0.07 0.07 0.05 0.03 0.03 0.04 0.05 0.07 0.09 0.07 0.05 0.06 0.07 0.08 0.12 0.18 0.13 0.04 0.02 0.02 0.03 0.03 0.02 0.03 0.02 0.01 0.01 0.03 0.04 0.04 0.03 0.03
0.03 0.03 0.05 0.06 0.05 0.06 0.07 0.09 0.07 0.08 0.07 0.07 0.07 0.05 0.05 0.06 0.07 0.06 0.04 0.05 0.04 0.04 0.06 0.07 0.07 0.10 0.15 0.09 0.03 0.02 0.03 0.04 0.03 0.03 0.03 0.02 0.01 0.01 0.03 0.04 0.04 0.04 0.05
0.03 0.03 0.04 0.04 0.05 0.06 0.05 0.10 0.14 0.13 0.12 0.10 0.07 0.05 0.04 0.06 0.07 0.05 0.03 0.03 0.02 0.02 0.02 0.03 0.03 0.05 0.10 0.09 0.06 0.06 0.06 0.07 0.06 0.05 0.03 0.02 0.01 0.02 0.03 0.03 0.03 0.04 0.07
0.07 0.06 0.04 0.03 0.03 0.03 0.04 0.15 0.18 0.09 0.09 0.09 0.06 0.04 0.05 0.06 0.06 0.03 0.04 0.03 0.03 0.02 0.02 0.02 0.02 0.04 0.09 0.14 0.16 0.15 0.13 0.11 0.09 0.04 0.03 0.01 0.01 0.02 0.02 0.02 0.02 0.03 0.05
0.07 0.08 0.05 0.03 0.03 0.02 0.05 0.12 0.11 0.08 0.08 0.09 0.06 0.04 0.05 0.05 0.04 0.04 0.05 0.05 0.04 0.04 0.04 0.04 0.04 0.05 0.08 0.11 0.13 0.13 0.12 0.10 0.07 0.04 0.03 0.02 0.02 0.03 0.03 0.02 0.02 0.02 0.03
0.05 0.06 0.07 0.08 0.06 0.03 0.04 0.06 0.06 0.08 0.08 0.07 0.05 0.04 0.07 0.08 0.06 0.06 0.05 0.04 0.04 0.07 0.07 0.06 0.06 0.05 0.05 0.03 0.05 0.06 0.08 0.08 0.06 0.05 0.05 0.02 0.02 0.03 0.03 0.03 0.03 0.03 0.04
0.05 0.03 0.04 0.07 0.09 0.06 0.05 0.04 0.04 0.06 0.06 0.05 0.04 0.03 0.06 0.07 0.07 0.07 0.06 0.04 0.04 0.06 0.07 0.04 0.03 0.03 0.04 0.04 0.04 0.05 0.06 0.05 0.06 0.06 0.05 0.03 0.03 0.04 0.03 0.03 0.03 0.03 0.03
0.04 0.03 0.05 0.05 0.06 0.05 0.04 0.04 0.03 0.04 0.04 0.06 0.05 0.03 0.04 0.05 0.07 0.08 0.07 0.06 0.05 0.05 0.05 0.03 0.03 0.04 0.04 0.05 0.05 0.04 0.03 0.05 0.06 0.06 0.06 0.06 0.05 0.04 0.03 0.02 0.02 0.03 0.03
0.02 0.01 0.02 0.03 0.05 0.04 0.04 0.04 0.02 0.02 0.03 0.05 0.05 0.03 0.03 0.04 0.07 0.08 0.09 0.07 0.06 0.06 0.05 0.04 0.04 0.05 0.06 0.06 0.05 0.04 0.05 0.05 0.07 0.11 0.06 0.07 0.07 0.04 0.02 0.02 0.02 0.02 0.02
0.02 0.02 0.02 0.02 0.03 0.03 0.05 0.06 0.04 0.04 0.04 0.04 0.05 0.03 0.03 0.03 0.05 0.09 0.08 0.05 0.06 0.08 0.07 0.06 0.05 0.05 0.06 0.07 0.06 0.06 0.06 0.07 0.07 0.07 0.07 0.07 0.08 0.05 0.03 0.02 0.02 0.03 0.03
0.01 0.02 0.02 0.02 0.03 0.03 0.05 0.06 0.04 0.06 0.05 0.03 0.04 0.03 0.02 0.03 0.04 0.07 0.05 0.04 0.05 0.06 0.07 0.05 0.05 0.04 0.05 0.07 0.05 0.06 0.05 0.06 0.09 0.07 0.08 0.07 0.09 0.08 0.08 0.05 0.03 0.03 0.04
0.00 0.01 0.02 0.03 0.03 0.04 0.05 0.06 0.04 0.05 0.05 0.04 0.02 0.03 0.02 0.03 0.04 0.04 0.04 0.03 0.04 0.05 0.06 0.06 0.04 0.05 0.05 0.06 0.04 0.05 0.05 0.06 0.07 0.07 0.06 0.06 0.08 0.08 0.08 0.07 0.06 0.04 0.03
0.02 0.02 0.04 0.06 0.05 0.06 0.06 0.07 0.06 0.05 0.06 0.05 0.01 0.01 0.02 0.02 0.03 0.04 0.03 0.05 0.04 0.04 0.03 0.03 0.04 0.04 0.05 0.04 0.05 0.07 0.07 0.05 0.05 0.04 0.05 0.07 0.07 0.06 0.07 0.06 0.06 0.07 0.05
0.02 0.03 0.04 0.04 0.04 0.05 0.06 0.06 0.06 0.06 0.06 0.06 0.03 0.01 0.01 0.01 0.02 0.03 0.04 0.04 0.03 0.04 0.04 0.03 0.04 0.05 0.06 0.05 0.06 0.08 0.09 0.09 0.07 0.04 0.04 0.04 0.05 0.04 0.04 0.04 0.05 0.06 0.07
0.01 0.02 0.02 0.03 0.03 0.04 0.05 0.05 0.07 0.08 0.06 0.04 0.03 0.03 0.02 0.02 0.03 0.03 0.03 0.03 0.04 0.04 0.05 0.06 0.05 0.05 0.07 0.06 0.06 0.07 0.09 0.10 0.08 0.07 0.05 0.03 0.03 0.03 0.04 0.04 0.04 0.04 0.05
0.01 0.01 0.01 0.03 0.04 0.04 0.05 0.06 0.07 0.08 0.08 0.06 0.05 0.06 0.06 0.06 0.05 0.04 0.03 0.03 0.05 0.04 0.05 0.06 0.07 0.07 0.08 0.07 0.06 0.05 0.05 0.06 0.09 0.08 0.05 0.04 0.03 0.03 0.03 0.02 0.03 0.05 0.04
0.00 0.00 0.01 0.02 0.04 0.05 0.06 0.06 0.06 0.06 0.06 0.06 0.06 0.06 0.05 0.04 0.04 0.03 0.03 0.04 0.06 0.04 0.04 0.04 0.07 0.07 0.07 0.06 0.07 0.06 0.05 0.07 0.07 0.10 0.09 0.07 0.04 0.03 0.02 0.02 0.03 0.03 0.03
0.00 0.00 0.01 0.02 0.05 0.05 0.05 0.05 0.05 0.05 0.05 0.05 0.05 0.04 0.04 0.04 0.04 0.03 0.04 0.05 0.05 0.04 0.05 0.05 0.05 0.07 0.08 0.08 0.07 0.05 0.07 0.06 0.07 0.09 0.07 0.06 0.04 0.03 0.03 0.02 0.02 0.03 0.03
MSLP
1005.37 1005.01 1004.84 1004.85 1004.96 1005.11 1005.21 1005.20 1005.07 1004.82 1004.50 1004.17 1003.87 1003.62 1003.44 1003.29 1003.14 1002.97 1002.73 1002.44 1002.10 1001.75 1001.43 1001.17 1000.98 1000.88 1000.86 1000.89 1000.97 1001.06 1001.18 1001.31 1001.47 1001.68 1001.95 1002.31 1002.76 1003.29 1003.89 1004.53 1005.19 1005.83 1006.42
1005.31 1004.96 1004.78 1004.77 1004.88 1005.02 1005.11 1005.10 1004.97 1004.70 1004.35 1003.97 1003.60 1003.27 1003.00 1002.77 1002.57 1002.36 1002.13 1001.85 1001.53 1001.20 1000.86 1000.56 1000.30 1000.11 999.99 999.96 1000.00 1000.10 1000.26 1000.47 1000.72 1001.01 1001.34 1001.72 1002.15 1002.65 1003.22 1003.85 1004.53 1005.24 1005.95
1005.06 1004.72 1004.56 1004.56 1004.68 1004.83 1004.95 1004.96 1004.84 1004.59 1004.22 1003.78 1003.34 1002.92 1002.55 1002.25 1001.99 1001.76 1001.53 1001.28 1000.99 1000.65 1000.26 999.86 999.46 999.09 998.81 998.65 998.61 998.72 998.97 999.32 999.74 1000.20 1000.67 1001.13 1001.60 1002.08 1002.61 1003.21 1003.89 1004.64 1005.43
1004.67 1004.35 1004.21 1004.23 1004.38 1004.57 1004.73 1004.78 1004.70 1004.46 1004.08 1003.61 1003.09 1002.58 1002.12 1001.74 1001.44 1001.19 1000.97 1000.74 1000.44 1000.05 999.56 998.96 998.32 997.68 997.13 996.75 996.61 996.71 997.07 997.63 998.33 999.08 999.80 1000.45 1001.03 1001.55 1002.06 1002.63 1003.28 1004.04 1004.88
1004.22 1003.93 1003.81 1003.87 1004.05 1004.28 1004.48 1004.59 1004.54 1004.32 1003.93 1003.42 1002.84 1002.25 1001.72 1001.27 1000.92 1000.66 1000.45 1000.20 999.85 999.35 998.65 997.77 996.76 995.74 994.82 994.16 993.85 993.95 994.45 995.30 996.37 997.52 998.63 999.60 1000.39 1001.02 1001.57 1002.12 1002.74 1003.48 1004.35
1003.83 1003.56 1003.47 1003.55 1003.76 1004.02 1004.25 1004.39 1004.37 1004.16 1003.77 1003.23 1002.59 1001.94 1001.33 1000.83 1000.45 1000.17 999.93 999.64 999.19 998.49 997.51 996.24 994.78 993.27 991.91 990.89 990.38 990.47 991.15 992.33 993.86 995.53 997.13 998.53 999.64 1000.48 1001.13 1001.69 1002.28 1003.00 1003.85
1003.60 1003.34 1003.26 1003.36 1003.57 1003.83 1004.07 1004.21 1004.20 1003.99 1003.58 1003.01 1002.34 1001.63 1000.98 1000.43 1000.01 999.70 999.41 999.03 998.43 997.49 996.16 994.45 992.48 990.44 988.60 987.20 986.48 986.54 987.40 988.95 990.98 993.21 995.39 997.29 998.80 999.92 1000.73 1001.34 1001.93 1002.61 1003.44
1003.57 1003.33 1003.26 1003.33 1003.52 1003.75 1003.95 1004.07 1004.03 1003.81 1003.39 1002.80 1002.09 1001.35 1000.65 1000.07 999.61 999.25 998.90 998.41 997.62 996.42 994.73 992.58 990.12 987.57 985.27 983.52 982.59 982.63 983.67 985.56 988.06 990.86 993.59 996.01 997.96 999.39 1000.39 1001.10 1001.70 1002.35 1003.14
1003.76 1003.53 1003.44 1003.48 1003.61 1003.77 1003.91 1003.96 1003.88 1003.63 1003.19 1002.58 1001.86 1001.10 1000.39 999.77 999.27 998.85 998.42 997.81 996.85 995.42 993.43 990.92 988.06 985.11 982.45 980.42 979.33 979.36 980.53 982.70 985.59 988.83 992.04 994.90 997.23 998.95 1000.15 1000.96 1001.60 1002.23 1002.98
1004.10 1003.89 1003.78 1003.76 1003.80 1003.87 1003.91 1003.89 1003.75 1003.47 1003.01 1002.41 1001.69 1000.93 1000.20 999.56 999.02 998.55 998.03 997.33 996.25 994.65 992.48 989.76 986.67 983.49 980.63 978.44 977.26 977.28 978.53 980.86 983.98 987.50 991.01 994.16 996.74 998.68 1000.02 1000.93 1001.60 1002.23 1002.94
1004.54 1004.33 1004.20 1004.11 1004.05 1004.01 1003.95 1003.85 1003.65 1003.34 1002.89 1002.30 1001.61 1000.86 1000.13 999.47 998.90 998.38 997.81 997.05 995.92 994.28 992.07 989.33 986.22 983.04 980.16 977.97 976.79 976.81 978.06 980.41 983.56 987.13 990.70 993.94 996.61 998.62 1000.04 1001.00 1001.69 1002.32 1003.01
1004.99 1004.80 1004.63 1004.48 1004.33 1004.18 1004.02 1003.84 1003.60 1003.28 1002.85 1002.29 1001.64 1000.93 1000.22 999.55 998.96 998.41 997.81 997.04 995.94 994.38 992.30 989.73 986.83 983.86 981.18 979.14 978.04 978.07 979.26 981.48 984.45 987.84 991.22 994.30 996.86 998.81 1000.20 1001.15 1001.86 1002.49 1003.17
1005.42 1005.24 1005.05 1004.82 1004.59 1004.35 1004.11 1003.87 1003.61 1003.30 1002.90 1002.41 1001.81 1001.15 1000.47 999.81 999.20 998.63 998.04 997.31 996.32 994.95 993.14 990.92 988.41 985.85 983.53 981.77 980.84 980.89 981.95 983.92 986.54 989.52 992.51 995.22 997.48 999.22 1000.48 1001.38 1002.08 1002.72 1003.40
1005.79 1005.63 1005.41 1005.13 1004.83 1004.52 1004.23 1003.96 1003.70 1003.41 1003.07 1002.64 1002.11 1001.51 1000.86 1000.21 999.60 999.03 998.46 997.81 996.97 995.87 994.43 992.66 990.68 988.65 986.82 985.45 984.74 984.82 985.73 987.35 989.50 991.93 994.35 996.55 998.39 999.81 1000.88 1001.68 1002.34 1002.99 1003.68
1006.12 1005.96 1005.72 1005.41 1005.06 1004.71 1004.39 1004.11 1003.86 1003.62 1003.33 1002.97 1002.51 1001.96 1001.34 1000.72 1000.11 999.54 999.00 998.44 997.79 996.96 995.92 994.66 993.25 991.80 990.52 989.57 989.11 989.25 989.98 991.24 992.88 994.70 996.49 998.11 999.46 1000.52 1001.35 1002.03 1002.65 1003.31 1004.02
1006.42 1006.26 1006.00 1005.67 1005.30 1004.93 1004.61 1004.33 1004.10 1003.89 1003.65 1003.34 1002.93 1002.43 1001.85 1001.24 1000.64 1000.09 999.58 999.10 998.61 998.04 997.37 996.57 995.69 994.80 994.03 993.49 993.30 993.50 994.10 995.03 996.18 997.42 998.62 999.68 1000.57 1001.28 1001.89 1002.45 1003.04 1003.70 1004.43
1006.69 1006.52 1006.25 1005.91 1005.54 1005.18 1004.86 1004.60 1004.39 1004.20 1003.99 1003.70 1003.33 1002.86 1002.31 1001.72 1001.13 1000.59 1000.12 999.70 999.33 998.96 998.56 998.13 997.68 997.25 996.92 996.74 996.78 997.06 997.57 998.24 999.01 999.79 1000.50 1001.11 1001.62 1002.05 1002.48 1002.94 1003.50 1004.16 1004.89
1006.93 1006.75 1006.48 1006.14 1005.79 1005.44 1005.15 1004.90 1004.70 1004.51 1004.30 1004.02 1003.66 1003.20 1002.68 1002.11 1001.55 1001.03 1000.58 1000.21 999.91 999.66 999.44 999.25 999.08 998.98 998.96 999.06 999.29 999.65 1000.12 1000.64 1001.15 1001.62 1002.00 1002.31 1002.56 1002.80 1003.10 1003.51 1004.04 1004.68 1005.40
1007.11 1006.92 1006.66 1006.35 1006.02 1005.71 1005.44 1005.21 1005.01 1004.80 1004.57 1004.27 1003.90 1003.45 1002.95 1002.42 1001.89 1001.41 1000.99 1000.65 1000.38 1000.18 1000.03 999.95 999.93 1000.00 1000.17 1000.43 1000.80 1001.24 1001.71 1002.17 1002.57 1002.89 1003.10 1003.25 1003.37 1003.52 1003.76 1004.12 1004.62 1005.23 1005.91
1007.21 1007.02 1006.78 1006.51 1006.23 1005.97 1005.73 1005.52 1005.31 1005.08 1004.80 1004.47 1004.08 1003.63 1003.16 1002.67 1002.21 1001.78 1001.41 1001.10 1000.84 1000.63 1000.48 1000.40 1000.41 1000.51 1000.74 1001.08 1001.51 1002.00 1002.51 1002.99 1003.38 1003.67 1003.85 1003.97 1004.06 1004.19 1004.41 1004.75 1005.21 1005.77 1006.37
1007.21 1007.04 1006.83 1006.61 1006.40 1006.20 1006.01 1005.82 1005.60 1005.34 1005.03 1004.66 1004.24 1003.80 1003.36 1002.94 1002.55 1002.21 1001.90 1001.63 1001.37 1001.14 1000.94 1000.80 1000.73 1000.78 1000.97 1001.29 1001.73 1002.25 1002.80 1003.32 1003.77 1004.11 1004.35 1004.52 1004.65 1004.80 1005.02 1005.33 1005.74 1006.22 1006.73
1007.13 1006.98 1006.82 1006.66 1006.52 1006.39 1006.26 1006.11 1005.90 1005.63 1005.29 1004.89 1004.45 1004.02 1003.62 1003.27 1002.98 1002.73 1002.51 1002.29 1002.06 1001.81 1001.54 1001.30 1001.13 1001.06 1001.15 1001.39 1001.78 1002.29 1002.86 1003.43 1003.95 1004.37 1004.70 1004.94 1005.13 1005.31 1005.53 1005.81 1006.15 1006.54 1006.95
1006.99 1006.87 1006.76 1006.67 1006.61 1006.56 1006.50 1006.40 1006.22 1005.95 1005.60 1005.19 1004.75 1004.34 1003.98 1003.71 1003.50 1003.36 1003.23 1003.09 1002.89 1002.63 1002.32 1001.99 1001.70 1001.51 1001.47 1001.60 1001.91 1002.37 1002.92 1003.51 1004.07 1004.56 1004.96 1005.26 1005.50 1005.70 1005.90 1006.13 1006.40 1006.70 1007.01
1006.83 1006.75 1006.68 1006.65 1006.67 1006.70 1006.72 1006.68 1006.55 1006.32 1005.99 1005.58 1005.16 1004.77 1004.45 1004.23 1004.10 1004.04 1004.00 1003.93 1003.78 1003.54 1003.21 1002.84 1002.46 1002.17 1002.01 1002.02 1002.23 1002.61 1003.11 1003.67 1004.23 1004.74 1005.16 1005.49 1005.73 1005.93 1006.10 1006.28 1006.48 1006.70 1006.94
1006.71 1006.65 1006.62 1006.64 1006.71 1006.82 1006.91 1006.95 1006.90 1006.72 1006.43 1006.05 1005.65 1005.28 1004.98 1004.80 1004.72 1004.71 1004.73 1004.72 1004.63 1004.42 1004.11 1003.72 1003.31 1002.94 1002.70 1002.62 1002.73 1003.01 1003.43 1003.92 1004.44 1004.91 1005.31 1005.61 1005.84 1006.01 1006.14 1006.28 1006.43 1006.60 1006.80
1006.65 1006.60 1006.58 1006.63 1006.74 1006.91 1007.08 1007.20 1007.22 1007.12 1006.89 1006.56 1006.18 1005.83 1005.54 1005.35 1005.28 1005.29 1005.33 1005.36 1005.31 1005.15 1004.87 1004.50 1004.10 1003.73 1003.44 1003.30 1003.33 1003.52 1003.83 1004.24 1004.66 1005.06 1005.39 1005.65 1005.83 1005.96 1006.07 1006.17 1006.30 1006.46 1006.65
Thickness
5807 5806 5803 5802 5801 5799 5797 5796 5795 5794 5793 5791 5790 5789 5788 5787 5785 5784 5784 5782 5781 5780 5778 5777 5775 5774 5773 5772 5771 5770 5769 5768 5768 5767 5766 5765 5764 5763 5762 5761 5761 5760 5758
5809 5806 5802 5802 5802 5800 5798 5796 5794 5793 5792 5790 5789 5788 5787 5786 5784 5783 5782 5781 5780 5779 5777 5776 5774 5773 5772 5771 5770 5768 5767 5767 5767 5766 5765 5764 5763 5762 5761 5760 5760 5758 5757
5809 5806 5802 5801 5801 5800 5797 5796 5794 5793 5792 5790 5788 5787 5785 5784 5783 5782 5781 5780 5779 5778 5776 5775 5773 5772 5771 5770 5769 5768 5767 5767 5767 5766 5766 5764 5763 5761 5760 5759 5758 5757 5756
5810 5806 5802 5800 5799 5798 5797 5795 5794 5793 5791 5790 5788 5786 5785 5784 5783 5781 5780 5779 5778 5777 5775 5774 5773 5772 5771 5770 5769 5768 5768 5767 5767 5766 5766 5765 5763 5761 5760 5758 5757 5756 5755
5810 5805 5801 5799 5799 5797 5796 5795 5794 5793 5791 5790 5788 5786 5785 5784 5782 5781 5780 5779 5777 5776 5775 5774 5772 5771 5771 5770 5769 5769 5768 5768 5767 5767 5766 5765 5763 5760 5759 5757 5756 5755 5754
5810 5806 5801 5799 5798 5797 5796 5795 5793 5792 5791 5790 5788 5787 5785 5784 5783 5781 5780 5778 5777 5776 5775 5774 5773 5772 5771 5770 5770 5770 5769 5768 5768 5768 5767 5765 5762 5760 5758 5756 5755 5754 5753
5809 5806 5801 5799 5797 5796 5795 5794 5793 5791 5790 5789 5788 5786 5785 5784 5783 5782 5780 5779 5777 5776 5775 5774 5773 5772 5771 5771 5770 5770 5770 5769 5769 5769 5767 5764 5761 5759 5757 5756 5754 5753 5752
5810 5806 5801 5798 5797 5796 5794 5794 5792 5791 5790 5789 5788 5786 5785 5784 5783 5782 5780 5779 5777 5776 5775 5774 5774 5773 5772 5772 5771 5771 5770 5770 5771 5771 5768 5764 5761 5759 5757 5755 5754 5753 5752
5812 5808 5803 5800 5797 5796 5794 5793 5792 5791 5790 5789 5788 5787 5786 5785 5784 5782 5781 5779 5778 5776 5776 5775 5774 5773 5773 5773 5773 5773 5772 5772 5772 5772 5769 5765 5762 5759 5758 5756 5754 5753 5752
5812 5809 5806 5803 5800 5798 5795 5793 5792 5791 5790 5789 5789 5788 5787 5786 5784 5783 5781 5780 5779 5777 5777 5776 5775 5775 5775 5776 5776 5775 5774 5774 5774 5772 5769 5765 5762 5760 5758 5756 5755 5753 5752
5810 5810 5808 5806 5803 5801 5799 5795 5793 5792 5791 5790 5790 5789 5788 5787 5786 5785 5784 5782 5781 5779 5778 5777 5776 5776 5776 5777 5778 5777 5776 5776 5776 5773 5770 5766 5763 5761 5759 5757 5755 5754 5753
5807 5809 5810 5808 5806 5804 5802 5798 5796 5795 5793 5792 5793 5792 5790 5790 5789 5788 5785 5784 5783 5782 5780 5779 5778 5777 5777 5779 5780 5779 5778 5778 5778 5775 5771 5767 5764 5762 5760 5758 5756 5754 5753
5810 5810 5810 5809 5807 5805 5802 5801 5799 5797 5795 5795 5794 5793 5792 5791 5790 5789 5787 5785 5784 5784 5783 5782 5780 5779 5780 5781 5781 5781 5781 5781 5780 5776 5771 5768 5765 5763 5761 5759 5757 5755 5754
5810 5810 5810 5809 5806 5805 5803 5802 5801 5799 5798 5796 5795 5794 5794 5792 5791 5791 5790 5789 5788 5788 5787 5786 5784 5784 5784 5785 5784 5783 5783 5782 5780 5776 5771 5769 5767 5765 5763 5760 5758 5756 5755
5810 5810 5810 5809 5806 5805 5803 5802 5802 5800 5800 5798 5797 5796 5795 5793 5792 5792 5792 5791 5791 5790 5789 5788 5787 5787 5786 5786 5785 5785 5783 5782 5780 5777 5773 5771 5769 5766 5764 5762 5760 5758 5756
5811 5811 5812 5809 5807 5805 5803 5802 5802 5802 5801 5800 5798 5797 5796 5795 5794 5793 5792 5792 5792 5792 5791 5790 5790 5788 5787 5787 5785 5785 5784 5783 5781 5779 5775 5772 5769 5768 5766 5763 5762 5760 5758
5814 5813 5812 5811 5810 5807 5804 5804 5804 5804 5803 5801 5799 5798 5797 5796 5795 5794 5793 5793 5793 5793 5793 5792 5791 5789 5788 5788 5786 5785 5784 5783 5782 5780 5777 5774 5771 5768 5767 5764 5763 5761 5760
5816 5814 5813 5814 5810 5807 5805 5805 5805 5805 5803 5802 5801 5799 5797 5797 5796 5795 5794 5793 5793 5793 5794 5792 5790 5788 5787 5786 5785 5785 5785 5783 5782 5781 5779 5776 5773 5771 5768 5765 5764 5762 5761
5819 5815 5813 5812 5810 5808 5807 5805 5805 5804 5803 5802 5801 5800 5798 5797 5796 5795 5794 5794 5794 5794 5793 5791 5788 5787 5784 5784 5784 5785 5784 5783 5783 5782 5779 5778 5775 5773 5770 5766 5764 5762 5760
5821 5817 5814 5812 5810 5809 5807 5805 5804 5803 5803 5802 5801 5799 5798 5797 5796 5795 5794 5794 5794 5792 5790 5789 5786 5786 5785 5784 5784 5783 5784 5784 5783 5781 5780 5778 5776 5774 5771 5769 5765 5762 5760
5822 5818 5814 5811 5810 5808 5805 5802 5799 5798 5800 5800 5801 5799 5797 5796 5795 5794 5793 5792 5791 5789 5788 5787 5785 5783 5783 5784 5780 5777 5780 5783 5782 5781 5780 5778 5776 5774 5772 5769 5766 5763 5760
5822 5819 5816 5812 5811 5809 5806 5804 5802 5801 5800 5801 5801 5799 5798 5796 5795 5795 5791 5791 5790 5788 5786 5785 5783 5780 5781 5783 5777 5770 5766 5769 5775 5781 5779 5776 5775 5774 5772 5770 5767 5765 5762
5826 5822 5819 5815 5812 5810 5808 5805 5803 5801 5800 5799 5797 5797 5797 5796 5794 5792 5791 5790 5789 5788 5785 5783 5782 5779 5776 5779 5780 5772 5762 5757 5764 5772 5776 5775 5774 5772 5771 5770 5768 5765 5763
5831 5828 5823 5817 5814 5810 5808 5804 5800 5795 5793 5795 5796 5796 5795 5795 5793 5791 5790 5788 5787 5786 5784 5783 5782 5780 5777 5773 5777 5778 5774 5769 5760 5757 5766 5771 5772 5770 5770 5770 5767 5765 5762
5836 5831 5825 5819 5814 5811 5809 5806 5801 5797 5796 5796 5796 5794 5793 5793 5791 5790 5788 5786 5785 5783 5782 5781 5780 5778 5777 5773 5772 5773 5772 5771 5767 5757 5753 5759 5765 5768 5769 5768 5767 5765 5762
5839 5834 5827 5819 5814 5812 5809 5806 5802 5798 5796 5793 5792 5790 5789 5790 5789 5788 5786 5785 5783 5781 5780 5779 5778 5776 5775 5773 5772 5772 5769 5765 5762 5759 5754 5754 5756 5762 5767 5767 5766 5764 5761